TimeCST,TemperatureF,Dew PointF,Humidity,Sea Level PressureIn,VisibilityMPH,Wind Direction,Wind SpeedMPH,Gust SpeedMPH,PrecipitationIn,Events,Conditions,WindDirDegrees,DateUTC
12:14 AM,12.2,5.0,73,30.06,10.0,South,6.9,-,N/A,,Clear,180,2013-01-25 06:14:00
12:34 AM,12.2,5.0,73,30.05,10.0,South,9.2,-,N/A,,Clear,190,2013-01-25 06:34:00
12:53 AM,10.4,3.2,73,30.04,10.0,South,6.9,-,N/A,,Clear,190,2013-01-25 06:53:00
1:14 AM,10.4,3.2,73,30.03,10.0,South,8.1,-,N/A,,Clear,190,2013-01-25 07:14:00
1:34 AM,8.6,3.2,79,30.02,10.0,SSW,8.1,-,N/A,,Clear,200,2013-01-25 07:34:00
1:53 AM,10.4,3.2,73,30.02,10.0,SW,9.2,-,N/A,,Scattered Clouds,230,2013-01-25 07:53:00
2:14 AM,12.2,5.0,73,30.02,10.0,SW,6.9,-,N/A,,Mostly Cloudy,230,2013-01-25 08:14:00
2:34 AM,12.2,6.8,79,30.01,10.0,SW,8.1,-,N/A,,Overcast,230,2013-01-25 08:34:00
2:53 AM,14.0,6.8,73,30.01,10.0,WSW,6.9,-,N/A,,Overcast,240,2013-01-25 08:53:00
3:14 AM,15.8,8.6,73,30.00,10.0,WSW,6.9,-,N/A,,Overcast,240,2013-01-25 09:14:00
3:34 AM,15.8,8.6,73,29.99,10.0,WSW,8.1,-,N/A,,Overcast,250,2013-01-25 09:34:00
3:53 AM,17.6,8.6,68,29.99,10.0,West,12.7,-,N/A,,Overcast,260,2013-01-25 09:53:00
4:14 AM,17.6,10.4,73,29.99,10.0,West,17.3,23.0,N/A,,Overcast,270,2013-01-25 10:14:00
4:34 AM,17.6,10.4,73,29.98,10.0,West,16.1,-,N/A,,Overcast,270,2013-01-25 10:34:00
4:53 AM,17.6,10.4,73,29.98,10.0,West,13.8,-,N/A,,Overcast,270,2013-01-25 10:53:00
5:14 AM,17.6,12.2,79,29.98,10.0,West,13.8,-,N/A,,Overcast,270,2013-01-25 11:14:00
5:34 AM,19.4,14.0,80,29.98,10.0,WNW,15.0,-,N/A,,Overcast,290,2013-01-25 11:34:00
5:53 AM,19.4,14.0,80,29.98,10.0,West,12.7,-,N/A,,Overcast,280,2013-01-25 11:53:00
6:14 AM,21.2,15.8,80,29.98,10.0,West,12.7,-,N/A,,Overcast,280,2013-01-25 12:14:00
6:34 AM,21.2,15.8,80,29.98,10.0,WNW,23.0,28.8,N/A,,Overcast,290,2013-01-25 12:34:00
6:53 AM,23.0,15.8,74,29.99,10.0,NW,23.0,36.8,N/A,,Overcast,310,2013-01-25 12:53:00
7:34 AM,19.4,12.2,74,30.02,10.0,NW,21.9,29.9,N/A,,Mostly Cloudy,310,2013-01-25 13:34:00
7:53 AM,19.4,12.2,74,30.03,10.0,NW,17.3,21.9,N/A,,Overcast,320,2013-01-25 13:53:00
8:14 AM,17.6,10.4,73,30.04,10.0,NW,21.9,27.6,N/A,Snow,Light Snow,320,2013-01-25 14:14:00
8:34 AM,15.8,8.6,73,30.06,10.0,NNW,21.9,-,N/A,,Scattered Clouds,330,2013-01-25 14:34:00
8:53 AM,14.0,6.8,73,30.07,10.0,NNW,24.2,27.6,N/A,,Clear,330,2013-01-25 14:53:00
9:13 AM,12.2,3.2,67,30.08,10.0,NNW,24.2,32.2,N/A,,Clear,330,2013-01-25 15:13:00
9:34 AM,12.2,1.4,62,30.09,10.0,NNW,26.5,31.1,N/A,,Clear,330,2013-01-25 15:34:00
9:53 AM,10.4,1.4,67,30.09,10.0,NNW,24.2,28.8,N/A,,Clear,330,2013-01-25 15:53:00
10:13 AM,10.4,-0.4,62,30.10,10.0,NW,23.0,-,N/A,,Clear,320,2013-01-25 16:13:00
10:34 AM,10.4,-0.4,62,30.12,10.0,NW,24.2,32.2,N/A,,Clear,320,2013-01-25 16:34:00
10:53 AM,10.4,-2.2,57,30.14,10.0,NNW,26.5,32.2,N/A,,Clear,340,2013-01-25 16:53:00
11:14 AM,10.4,-2.2,57,30.14,10.0,NW,25.3,-,N/A,,Clear,320,2013-01-25 17:14:00
11:34 AM,8.6,-0.4,67,30.16,10.0,NNW,20.7,-,N/A,,Clear,330,2013-01-25 17:34:00
11:53 AM,8.6,-0.4,67,30.16,10.0,NNW,21.9,27.6,N/A,,Clear,330,2013-01-25 17:53:00
12:14 PM,8.6,-0.4,67,30.17,10.0,NNW,21.9,28.8,N/A,,Clear,330,2013-01-25 18:14:00
12:33 PM,8.6,-2.2,62,30.18,10.0,NNW,23.0,-,N/A,,Clear,330,2013-01-25 18:33:00
12:54 PM,8.6,-2.2,62,30.18,10.0,NW,20.7,25.3,N/A,,Clear,320,2013-01-25 18:54:00
1:14 PM,8.6,-0.4,67,30.19,10.0,NNW,15.0,-,N/A,,Clear,330,2013-01-25 19:14:00
1:33 PM,8.6,-0.4,67,30.19,10.0,NNW,19.6,24.2,N/A,,Clear,330,2013-01-25 19:33:00
1:54 PM,8.6,-2.2,62,30.20,10.0,NNW,19.6,23.0,N/A,,Clear,340,2013-01-25 19:54:00
2:13 PM,8.6,-2.2,62,30.20,10.0,NNW,18.4,-,N/A,,Clear,330,2013-01-25 20:13:00
2:34 PM,8.6,-2.2,62,30.20,10.0,NNW,16.1,21.9,N/A,,Clear,340,2013-01-25 20:34:00
2:54 PM,8.6,-2.2,62,30.20,10.0,NNW,18.4,-,N/A,,Clear,340,2013-01-25 20:54:00
3:13 PM,8.6,-2.2,62,30.20,10.0,NNW,18.4,-,N/A,,Clear,330,2013-01-25 21:13:00
3:34 PM,8.6,-2.2,62,30.21,10.0,NNW,13.8,-,N/A,,Clear,330,2013-01-25 21:34:00
3:54 PM,8.6,-2.2,62,30.21,10.0,NNW,16.1,-,N/A,,Clear,340,2013-01-25 21:54:00
4:13 PM,8.6,-2.2,62,30.22,10.0,NNW,12.7,-,N/A,,Clear,340,2013-01-25 22:13:00
4:34 PM,8.6,-2.2,62,30.24,10.0,NNW,15.0,-,N/A,,Clear,340,2013-01-25 22:34:00
4:54 PM,6.8,-2.2,67,30.24,10.0,NNW,13.8,-,N/A,,Clear,340,2013-01-25 22:54:00
5:13 PM,6.8,-4.0,61,30.24,10.0,NNW,12.7,-,N/A,,Clear,340,2013-01-25 23:13:00
5:34 PM,5.0,-4.0,66,30.25,10.0,NNW,9.2,-,N/A,,Clear,340,2013-01-25 23:34:00
5:54 PM,5.0,-4.0,66,30.25,10.0,NNW,9.2,-,N/A,,Clear,340,2013-01-25 23:54:00
6:13 PM,5.0,-4.0,66,30.26,10.0,NNW,6.9,-,N/A,,Clear,330,2013-01-26 00:13:00
6:34 PM,3.2,-4.0,72,30.28,10.0,NNW,6.9,-,N/A,,Clear,330,2013-01-26 00:34:00
6:54 PM,3.2,-4.0,72,30.28,10.0,NNW,6.9,-,N/A,,Clear,330,2013-01-26 00:54:00
7:13 PM,3.2,-4.0,72,30.29,10.0,NNW,6.9,-,N/A,,Clear,330,2013-01-26 01:13:00
7:34 PM,3.2,-4.0,72,30.28,10.0,North,8.1,-,N/A,,Clear,350,2013-01-26 01:34:00
7:53 PM,3.2,-4.0,72,30.29,10.0,North,10.4,-,N/A,,Clear,350,2013-01-26 01:53:00
8:13 PM,3.2,-4.0,72,30.29,10.0,North,8.1,-,N/A,,Clear,360,2013-01-26 02:13:00
8:34 PM,1.4,-4.0,78,30.29,10.0,North,6.9,-,N/A,,Clear,360,2013-01-26 02:34:00
8:54 PM,1.4,-5.8,72,30.29,10.0,North,8.1,-,N/A,,Clear,360,2013-01-26 02:54:00
9:13 PM,1.4,-5.8,72,30.29,10.0,North,4.6,-,N/A,,Clear,10,2013-01-26 03:13:00
9:34 PM,1.4,-5.8,72,30.29,10.0,North,5.8,-,N/A,,Clear,350,2013-01-26 03:34:00
9:54 PM,-0.4,-5.8,78,30.30,10.0,North,4.6,-,N/A,,Clear,350,2013-01-26 03:54:00
10:13 PM,1.4,-5.8,72,30.29,10.0,NNW,3.5,-,N/A,,Clear,340,2013-01-26 04:13:00
10:54 PM,-0.4,-5.8,78,30.29,10.0,Calm,Calm,-,N/A,,Clear,0,2013-01-26 04:54:00
11:13 PM,-0.4,-5.8,78,30.30,10.0,Calm,Calm,-,N/A,,Clear,0,2013-01-26 05:13:00
11:34 PM,-0.4,-7.6,72,30.30,10.0,Calm,Calm,-,N/A,,Clear,0,2013-01-26 05:34:00
11:53 PM,-0.4,-5.8,78,30.31,10.0,Calm,Calm,-,N/A,,Clear,0,2013-01-26 05:53:00